CW4517 Weather Reports


time (UTC)temp
F
wind
direction
speed
knots
gust
knots
rain 1hr
in
rain 24hr
in
rain mn
in
humidity
%
barometer
mb
20260905054622 80 241 0.9 3.5 0.00 0.00 0.00 86 1009.6
20260905054115 80 221 0.9 2.6 0.00 0.00 0.00 86 1009.7
20260905053610 80 221 0.9 3.5 0.00 0.00 0.00 86 1009.7
20260905053103 80 217 0.9 3.5 0.00 0.00 0.00 85 1009.7
20260905052557 80 221 0.0 2.6 0.00 0.00 0.00 85 1009.6
20260905052309 80 221 1.7 3.5 0.00 0.00 0.00 85 1009.6
20260905052033 81 228 1.7 3.5 0.00 0.00 0.00 85 1009.6
20260905051040 81 215 2.6 4.3 0.00 0.00 0.00 85 1009.2
20260905050534 81 236 2.6 5.2 0.00 0.00 0.00 84 1009.2
20260905050024 81 226 1.7 5.2 0.00 0.00 0.00 84 1009.2
20260905045523 81 211 0.9 4.3 0.00 0.00 0.00 84 1009.5
20260905045017 81 232 0.9 2.6 0.00 0.00 0.00 83 1009.5
20260905044513 82 232 0.9 2.6 0.00 0.00 0.00 83 1009.5
20260905044006 82 231 0.9 2.6 0.00 0.00 0.00 82 1009.7
20260905043456 82 239 0.9 1.7 0.00 0.00 0.00 82 1009.7
20260905043212 83 240 1.7 4.3 0.00 0.00 0.00 81 1009.6
20260905042448 83 240 1.7 4.3 0.00 0.00 0.00 81 1009.6
20260905041943 83 229 1.7 3.5 0.00 0.00 0.00 81 1009.6
20260905041436 83 226 1.7 3.5 0.00 0.00 0.00 80 1009.7
20260905040925 83 224 1.7 3.5 0.00 0.00 0.00 80 1009.7
20260905040423 83 231 1.7 3.5 0.00 0.00 0.00 80 1009.7
20260905035918 83 225 0.9 3.5 0.00 0.00 0.00 80 1009.8
20260905035411 84 231 0.0 3.5 0.00 0.00 0.00 79 1009.8
20260905034906 84 228 0.0 0.0 0.00 0.00 0.00 79 1009.8
20260905034352 84 228 0.0 0.0 0.00 0.00 0.00 78 1010.1
20260905033847 84 228 0.0 0.0 0.00 0.00 0.00 78 1010.1
20260905033348 84 228 0.0 0.0 0.00 0.00 0.00 78 1010.1
20260905032842 84 228 0.0 0.0 0.00 0.00 0.00 78 1010.2
20260905032552 84 228 0.0 0.0 0.00 0.00 0.00 79 1010.2
20260905031830 84 228 0.0 0.0 0.00 0.00 0.00 79 1010.2
20260905031543 84 228 0.0 0.0 0.00 0.00 0.00 80 1010.1
20260905030809 84 228 0.0 0.0 0.00 0.00 0.00 80 1010.1
20260905030311 84 228 0.0 0.0 0.00 0.00 0.00 80 1010.1
20260905025806 84 228 0.0 0.0 0.00 0.00 0.00 80 1009.8
20260905025258 84 228 0.0 0.0 0.00 0.00 0.00 80 1009.8
20260905024754 84 227 0.0 0.0 0.00 0.00 0.00 80 1009.8
20260905024241 83 227 0.0 0.0 0.00 0.00 0.00 80 1009.8
20260905023740 83 227 0.0 0.0 0.00 0.00 0.00 80 1009.8
20260905023236 84 227 0.0 0.0 0.00 0.00 0.00 80 1009.8
20260905022953 84 227 0.0 0.0 0.00 0.00 0.00 80 1009.7
20260905022223 84 227 0.0 0.0 0.00 0.00 0.00 79 1009.7
20260905021938 84 227 0.0 0.0 0.00 0.00 0.00 79 1009.7
20260905021210 84 227 0.0 0.0 0.00 0.00 0.00 79 1009.7
20260905020922 84 227 0.0 0.0 0.00 0.00 0.00 78 1009.7
20260905020159 85 227 0.0 0.0 0.00 0.00 0.00 79 1009.7
20260905015654 85 227 0.0 0.0 0.00 0.00 0.00 78 1009.7
20260905015146 85 227 0.0 0.0 0.00 0.00 0.00 78 1009.7
20260905014854 85 227 0.0 0.0 0.00 0.00 0.00 79 1009.7
20260905014124 85 227 0.0 0.0 0.00 0.00 0.00 78 1009.3
20260905013627 85 227 0.0 0.0 0.00 0.00 0.00 78 1009.3
20260905013124 85 227 0.0 0.0 0.00 0.00 0.00 78 1009.3
20260905012625 85 227 0.0 0.0 0.00 0.00 0.00 78 1009.2
20260905012123 85 227 0.0 0.0 0.00 0.00 0.00 78 1009.2
20260905011850 85 227 0.0 0.0 0.00 0.00 0.00 78 1009.2
20260905011620 85 227 0.0 0.0 0.00 0.00 0.00 77 1008.7
20260905010625 86 227 0.0 0.0 0.00 0.00 0.00 77 1008.7
20260905010123 86 227 0.0 0.0 0.00 0.00 0.00 77 1008.7
20260905005619 86 227 0.0 0.0 0.00 0.00 0.00 77 1008.7
20260905005111 86 227 0.0 0.0 0.00 0.00 0.00 76 1008.7
20260905004606 87 227 0.0 0.0 0.00 0.00 0.00 76 1008.7
20260905004100 87 227 0.0 0.0 0.00 0.00 0.00 75 1009.0
20260905003553 87 226 0.0 0.0 0.00 0.00 0.00 75 1009.0
20260905003308 87 229 0.0 0.0 0.00 0.00 0.00 74 1009.0
20260905002537 88 217 0.0 0.0 0.00 0.00 0.00 73 1009.0
20260905002035 88 229 0.0 0.0 0.00 0.00 0.00 73 1009.0
20260905001757 89 229 0.0 0.0 0.00 0.00 0.00 73 1009.0
20260905001024 89 224 0.0 0.0 0.00 0.00 0.00 72 1009.0
20260905000517 89 225 0.9 3.5 0.00 0.00 0.00 72 1009.0
20260905000011 89 231 1.7 4.3 0.00 0.00 0.00 71 1009.0
20260904235506 89 231 1.7 4.3 0.00 0.00 0.00 71 1009.1
20260904235000 90 244 1.7 6.1 0.00 0.00 0.00 71 1009.1
20260904234455 90 232 0.9 6.1 0.00 0.00 0.00 70 1009.1
20260904233949 90 240 0.0 5.2 0.00 0.00 0.00 70 1009.1
20260904233700 90 243 1.7 7.0 0.00 0.00 0.00 70 1009.1
20260904232937 91 245 2.6 7.0 0.00 0.00 0.00 69 1009.1
20260904232425 91 213 3.5 7.0 0.00 0.00 0.00 69 1009.1
20260904232153 91 237 3.5 7.0 0.00 0.00 0.00 69 1009.1
20260904231417 91 262 1.7 7.0 0.00 0.00 0.00 68 1009.2
20260904230911 91 235 1.7 5.2 0.00 0.00 0.00 69 1009.2
20260904230630 91 256 2.6 6.1 0.00 0.00 0.00 69 1009.2
20260904225857 91 188 3.5 7.0 0.00 0.00 0.00 69 1009.1
20260904225355 91 254 3.5 7.0 0.00 0.00 0.00 69 1009.1
20260904224850 91 225 3.5 7.0 0.00 0.00 0.00 68 1009.1
20260904224341 91 238 3.5 7.8 0.00 0.00 0.00 68 1009.1
20260904223836 92 231 3.5 7.8 0.00 0.00 0.00 67 1009.1
20260904223329 92 244 4.3 7.8 0.00 0.00 0.00 68 1009.1
20260904222824 92 238 3.5 7.8 0.00 0.00 0.00 67 1008.9
20260904222325 92 222 3.5 8.7 0.00 0.00 0.00 67 1008.9
20260904221825 92 223 3.5 8.7 0.00 0.00 0.00 68 1008.9
20260904221324 91 238 3.5 8.7 0.00 0.00 0.00 67 1009.0
20260904220825 92 215 3.5 8.7 0.00 0.00 0.00 66 1009.0
20260904220326 92 207 3.5 7.8 0.00 0.00 0.00 65 1009.0
20260904215824 92 224 5.2 11.3 0.00 0.00 0.00 65 1008.8
20260904215325 92 233 5.2 11.3 0.00 0.00 0.00 64 1008.8
20260904215052 92 257 4.3 10.4 0.00 0.00 0.00 64 1008.8
20260904214325 92 231 3.5 10.4 0.00 0.00 0.00 64 1008.8
20260904213825 92 182 3.5 8.7 0.00 0.00 0.00 65 1008.8
20260904213328 93 220 3.5 8.7 0.00 0.00 0.00 64 1008.8
20260904213053 93 235 3.5 7.0 0.00 0.00 0.00 64 1009.0
20260904212325 93 196 3.5 7.8 0.00 0.00 0.00 64 1009.0
20260904211825 92 214 3.5 9.6 0.00 0.00 0.00 65 1009.0
20260904211326 93 254 2.6 9.6 0.00 0.00 0.00 64 1009.2
20260904210824 92 138 3.5 9.6 0.00 0.00 0.00 65 1009.2
20260904210806 92 199 3.5 9.6 0.00 0.00 0.00 65 1009.2
20260904205825 92 196 3.5 8.7 0.00 0.00 0.00 65 1009.5
20260904205324 92 229 3.5 8.7 0.00 0.00 0.00 65 1009.5
20260904204824 92 218 3.5 8.7 0.00 0.00 0.00 65 1009.5
20260904204322 92 217 3.5 10.4 0.00 0.00 0.00 65 1009.5
20260904203821 92 219 3.5 10.4 0.00 0.00 0.00 65 1009.5
20260904203316 92 192 3.5 8.7 0.00 0.00 0.00 65 1009.5
20260904202810 92 209 3.5 8.7 0.00 0.00 0.00 66 1009.7
20260904202306 92 182 3.5 6.1 0.00 0.00 0.00 65 1009.7
20260904201755 92 186 2.6 6.1 0.00 0.00 0.00 66 1009.7
20260904201250 92 188 2.6 7.8 0.00 0.00 0.00 66 1009.8
20260904201226 92 234 1.7 7.8 0.00 0.00 0.00 65 1009.8
20260904200507 92 227 2.6 8.7 0.00 0.00 0.00 66 1009.8
20260904195733 92 152 1.7 8.7 0.00 0.00 0.00 66 1010.0
20260904195222 92 217 1.7 7.8 0.00 0.00 0.00 65 1010.0
20260904194720 92 181 0.9 7.8 0.00 0.00 0.00 65 1010.0
20260904194216 92 246 0.9 7.0 0.00 0.00 0.00 65 1010.3
20260904193710 92 233 0.9 5.2 0.00 0.00 0.00 65 1010.3
20260904193203 91 146 0.0 2.6 0.00 0.00 0.00 65 1010.3
20260904192652 91 172 0.9 6.1 0.00 0.00 0.00 66 1010.5
20260904192417 90 155 1.7 7.0 0.00 0.00 0.00 66 1010.5
20260904191645 90 111 1.7 7.0 0.00 0.00 0.00 65 1010.5
20260904191138 90 165 1.7 7.0 0.00 0.00 0.00 68 1010.8
20260904190632 89 109 0.9 7.0 0.00 0.00 0.00 68 1010.8
20260904190126 89 204 2.6 7.8 0.00 0.00 0.00 69 1010.8
20260904185620 89 92 1.7 7.8 0.00 0.00 0.00 68 1011.0
20260904185331 88 162 0.9 5.2 0.00 0.00 0.00 70 1011.0
20260904184609 88 116 1.7 8.7 0.00 0.00 0.00 70 1011.0
20260904184104 87 90 3.5 9.6 0.00 0.00 0.00 70 1011.4
20260904183557 87 106 3.5 9.6 0.00 0.00 0.00 71 1011.4
20260904183051 86 106 3.5 7.8 0.00 0.00 0.00 73 1011.4
20260904182541 86 92 3.5 9.6 0.00 0.00 0.00 72 1011.6
20260904182039 86 342 3.5 9.6 0.00 0.00 0.00 72 1011.6
20260904181757 86 77 3.5 10.4 0.00 0.00 0.00 75 1011.6
20260904181026 86 136 4.3 10.4 0.00 0.00 0.00 73 1011.9
20260904180519 86 86 4.3 8.7 0.00 0.00 0.00 74 1011.9
20260904180500 85 150 3.5 8.7 0.00 0.00 0.00 74 1011.9
20260904175510 85 97 2.6 8.7 0.00 0.00 0.00 76 1012.4
20260904174958 84 141 3.5 10.4 0.00 0.00 0.00 78 1012.4
20260904174455 84 79 5.2 11.3 0.00 0.00 0.00 78 1012.4
20260904173950 84 80 5.2 11.3 0.00 0.00 0.00 77 1012.4
20260904173444 84 52 5.2 11.3 0.00 0.00 0.00 78 1012.4
20260904172939 84 333 5.2 13.0 0.00 0.00 0.00 77 1012.4
20260904172429 85 22 6.1 13.0 0.00 0.00 0.00 76 1012.4
20260904172150 85 67 6.1 13.0 0.00 0.00 0.00 75 1012.4
20260904171409 85 15 5.2 13.9 0.00 0.00 0.00 74 1012.7
20260904170904 85 39 5.2 13.9 0.00 0.00 0.00 74 1012.7
20260904170405 85 32 6.1 13.0 0.00 0.00 0.00 74 1012.7
20260904165904 86 91 5.2 12.2 0.00 0.00 0.00 73 1012.5
20260904165401 86 63 5.2 11.3 0.00 0.00 0.00 75 1012.5
20260904165344 86 22 6.1 12.2 0.00 0.00 0.00 74 1012.5
20260904164401 86 67 5.2 12.2 0.00 0.00 0.00 73 1012.4
20260904163903 86 82 5.2 10.4 0.00 0.00 0.00 73 1012.4
20260904163404 86 55 5.2 11.3 0.00 0.00 0.00 73 1012.4
20260904163123 87 43 4.3 11.3 0.00 0.00 0.00 73 1012.2
20260904162400 87 35 3.5 8.7 0.00 0.00 0.00 72 1012.2
20260904161856 87 24 4.3 13.9 0.00 0.00 0.00 73 1012.2
20260904161348 87 31 4.3 13.9 0.00 0.00 0.00 71 1011.9
20260904160842 88 41 1.7 8.7 0.00 0.00 0.00 68 1011.9
20260904160336 88 65 1.7 5.2 0.00 0.00 0.00 67 1011.9
20260904155831 88 349 1.7 6.1 0.00 0.00 0.00 67 1011.9
20260904155542 88 311 1.7 6.1 0.00 0.00 0.00 68 1011.9
20260904154820 87 88 1.7 7.8 0.00 0.00 0.00 70 1011.9
20260904154312 87 54 2.6 7.8 0.00 0.00 0.00 70 1011.7
20260904154026 87 51 2.6 7.8 0.00 0.00 0.00 70 1011.7
20260904153301 87 9 2.6 7.0 0.00 0.00 0.00 71 1011.7
20260904152756 87 350 2.6 7.0 0.00 0.00 0.00 70 1011.5
20260904152249 87 46 1.7 5.2 0.00 0.00 0.00 70 1011.5
20260904151739 86 23 2.6 6.1 0.00 0.00 0.00 71 1011.5
20260904151453 86 342 1.7 6.1 0.00 0.00 0.00 71 1011.4
20260904150730 86 348 1.7 4.3 0.00 0.00 0.00 71 1011.4
20260904150226 86 316 0.9 4.3 0.00 0.00 0.00 72 1011.4
20260904145719 86 32 0.9 3.5 0.00 0.00 0.00 72 1011.5
20260904145206 85 301 1.7 5.2 0.00 0.00 0.00 73 1011.5
20260904144925 85 342 2.6 7.8 0.00 0.00 0.00 73 1011.5
20260904144201 85 5 2.6 7.8 0.00 0.00 0.00 74 1011.3
20260904143655 84 325 1.7 5.2 0.00 0.00 0.00 74 1011.3
20260904143155 83 250 2.6 6.1 0.00 0.00 0.00 75 1011.3
20260904142914 83 242 3.5 9.6 0.00 0.00 0.00 75 1011.2
20260904142150 83 265 3.5 9.6 0.00 0.00 0.00 75 1011.2
20260904141649 83 217 2.6 6.1 0.00 0.00 0.00 75 1011.2
20260904141149 83 287 1.7 6.1 0.00 0.00 0.00 75 1011.2
20260904140649 82 237 1.7 4.3 0.00 0.00 0.00 77 1011.2
20260904140413 82 229 1.7 4.3 0.00 0.00 0.00 77 1011.2
20260904135646 81 229 1.7 4.3 0.00 0.00 0.00 78 1011.2
20260904135144 81 248 1.7 4.3 0.00 0.00 0.00 79 1011.2
20260904134905 80 227 1.7 3.5 0.00 0.00 0.00 81 1011.2
20260904134409 80 221 0.9 3.5 0.00 0.00 0.00 80 1011.3
20260904133645 80 223 0.9 3.5 0.00 0.00 0.00 81 1011.3
20260904133144 79 213 0.0 2.6 0.00 0.00 0.00 81 1011.3
20260904132645 79 140 0.0 0.9 0.00 0.00 0.00 83 1011.3
20260904132145 78 140 0.0 0.9 0.00 0.00 0.00 83 1011.3
20260904131643 78 139 0.0 0.0 0.00 0.00 0.00 84 1011.3
20260904131144 78 177 0.0 0.0 0.00 0.00 0.00 84 1010.9
20260904130637 77 180 0.0 0.0 0.00 0.00 0.00 85 1010.9
20260904130127 77 219 0.0 2.6 0.00 0.00 0.00 85 1010.9
20260904125627 77 221 0.9 3.5 0.00 0.00 0.00 85 1010.5
20260904125128 77 221 0.9 3.5 0.00 0.00 0.00 86 1010.5
20260904124626 76 212 1.7 3.5 0.00 0.00 0.00 86 1010.5
20260904124126 76 227 1.7 4.3 0.00 0.00 0.00 86 1010.2
20260904123631 76 223 1.7 4.3 0.00 0.00 0.00 87 1010.2
20260904123127 76 229 1.7 4.3 0.00 0.00 0.00 87 1010.2
20260904122626 75 230 0.9 2.6 0.00 0.00 0.00 87 1010.0
20260904122127 75 213 0.0 1.7 0.00 0.00 0.00 88 1010.0
20260904121621 75 212 0.0 1.7 0.00 0.00 0.00 88 1010.0
20260904121116 75 213 0.0 1.7 0.00 0.00 0.00 88 1009.8
20260904120609 75 213 0.0 1.7 0.00 0.00 0.00 88 1009.8
20260904120104 75 215 0.0 0.9 0.00 0.00 0.00 88 1009.8
20260904115553 75 215 0.0 1.7 0.00 0.00 0.00 88 1009.7
20260904115317 75 215 0.9 1.7 0.00 0.00 0.00 88 1009.7
20260904114545 75 193 0.0 1.7 0.00 0.00 0.00 87 1009.7
20260904114040 75 180 0.0 1.7 0.00 0.00 0.00 87 1009.6
20260904113533 75 219 0.9 1.7 0.00 0.00 0.00 87 1009.6
20260904113026 75 219 0.9 3.5 0.00 0.00 0.00 87 1009.6
20260904113008 75 211 1.7 5.2 0.00 0.00 0.00 87 1009.2
20260904112011 75 214 2.6 5.2 0.00 0.00 0.00 87 1009.2
20260904111509 75 220 2.6 5.2 0.00 0.00 0.00 87 1009.2
20260904111004 75 215 2.6 6.1 0.00 0.00 0.00 87 1009.2
20260904110458 75 218 3.5 6.1 0.00 0.00 0.00 87 1009.2
20260904105951 75 235 3.5 7.0 0.00 0.00 0.00 87 1009.2
20260904105441 75 208 3.5 7.0 0.00 0.00 0.00 87 1009.2
20260904104938 75 191 3.5 7.0 0.00 0.00 0.00 87 1009.2
20260904104433 75 239 3.5 7.0 0.00 0.00 0.00 87 1009.2
20260904103926 75 247 3.5 7.0 0.00 0.00 0.00 87 1009.2
20260904103421 75 229 3.5 7.0 0.00 0.00 0.00 87 1009.2
20260904102910 75 201 3.5 7.0 0.00 0.00 0.00 88 1009.5
20260904102409 75 200 2.6 7.0 0.00 0.00 0.00 88 1009.5
20260904101902 75 210 2.6 7.0 0.00 0.00 0.00 88 1009.5
20260904101840 76 225 1.7 5.2 0.00 0.00 0.00 88 1009.7
20260904101113 76 213 1.7 5.2 0.00 0.00 0.00 87 1009.7
20260904100610 76 209 1.7 4.3 0.00 0.00 0.00 87 1009.7
20260904095550 76 234 1.7 3.5 0.00 0.00 0.00 87 1009.7
20260904094826 76 194 0.9 3.5 0.00 0.00 0.00 87 1009.7
20260904094320 76 215 1.7 3.5 0.00 0.00 0.00 87 1009.8
20260904093814 76 217 0.9 2.6 0.00 0.00 0.00 87 1009.8
20260904093309 76 209 0.9 2.6 0.00 0.00 0.00 87 1009.8
20260904092858 76 209 0.0 1.7 0.00 0.00 0.00 86 1010.1
20260904091803 76 217 0.9 2.6 0.00 0.00 0.00 87 1010.1
20260904091304 76 200 0.9 3.5 0.00 0.00 0.00 86 1010.1
20260904091023 76 196 1.7 3.5 0.00 0.00 0.00 86 1010.1
20260904090303 76 201 1.7 3.5 0.00 0.00 0.00 86 1010.1
20260904085801 77 219 1.7 3.5 0.00 0.00 0.00 86 1010.1
20260904085530 77 230 1.7 3.5 0.00 0.00 0.00 86 1010.1
20260904084800 77 227 1.7 3.5 0.00 0.00 0.00 86 1010.1
20260904084259 77 225 0.9 3.5 0.00 0.00 0.00 86 1009.8
20260904084022 77 216 0.9 3.5 0.00 0.00 0.00 86 1009.8
20260904083302 77 223 0.9 3.5 0.00 0.00 0.00 86 1009.8
20260904082758 77 232 0.9 4.3 0.00 0.00 0.00 86 1009.5
20260904082244 77 221 1.7 4.3 0.00 0.00 0.00 86 1009.5
20260904081951 77 219 1.7 5.2 0.00 0.00 0.00 86 1009.5
20260904081221 77 217 2.6 5.2 0.00 0.00 0.00 86 1009.3
20260904081154 77 225 1.7 5.2 0.00 0.00 0.00 86 1009.3
20260904080158 77 234 1.7 5.2 0.00 0.00 0.00 86 1009.3
20260904075644 77 154 1.7 4.3 0.00 0.00 0.00 86 1009.2
20260904075401 77 217 1.7 4.3 0.00 0.00 0.00 86 1009.2
20260904074636 78 210 2.6 4.3 0.00 0.00 0.00 86 1009.2
20260904074131 78 174 2.6 7.0 0.00 0.00 0.00 86 1009.3
20260904073621 78 227 2.6 5.2 0.00 0.00 0.00 86 1009.3
20260904073338 78 231 2.6 5.2 0.00 0.00 0.00 86 1009.3
20260904072612 78 214 2.6 5.2 0.00 0.00 0.00 86 1009.4
20260904072106 78 218 2.6 5.2 0.00 0.00 0.00 86 1009.4
20260904071828 79 220 2.6 5.2 0.00 0.00 0.00 85 1009.4
20260904071055 79 205 1.7 4.3 0.00 0.00 0.00 85 1009.7
20260904070545 79 213 2.6 4.3 0.00 0.00 0.00 85 1009.7
20260904070039 79 238 2.6 5.2 0.00 0.00 0.00 85 1009.7
20260904065528 79 211 2.6 5.2 0.00 0.00 0.00 84 1009.9
20260904065026 80 231 2.6 6.1 0.00 0.00 0.00 84 1009.9
20260904064519 80 234 1.7 6.1 0.00 0.00 0.00 84 1009.9
20260904064014 80 182 2.6 4.3 0.00 0.00 0.00 84 1010.2
20260904063509 80 238 2.6 4.3 0.00 0.00 0.00 84 1010.2
20260904062957 80 168 1.7 6.1 0.00 0.00 0.00 84 1010.2
20260904062457 80 150 1.7 6.1 0.00 0.00 0.00 84 1010.3
20260904062211 80 160 0.9 3.5 0.00 0.00 0.00 84 1010.3
20260904061705 80 177 0.0 3.5 0.00 0.00 0.00 84 1010.3
20260904060937 80 184 0.9 4.3 0.00 0.00 0.00 84 1010.3
20260904060427 80 190 0.9 4.3 0.00 0.00 0.00 84 1010.3
20260904055927 80 198 0.9 2.6 0.00 0.00 0.00 84 1010.5
20260904055420 80 197 0.9 3.5 0.00 0.00 0.00 84 1010.5
20260904054914 80 196 0.9 3.5 0.00 0.00 0.00 84 1010.5